Location: Krishnamma Banjar
(17.2175°N, 80.5166°E)
Time: 07:35:50
(UTC+00:00)

ARIANE 5 R/B - Pass Details

Date: 03 August 2024
Orbit: 747 x 792 km, 98.8° (Epoch: 13 September)

Event Time Altitude Azimuth Distance (km) Brightness Sun altitude
Rises 23:13:11 0° 24° (NNE) 3,282 6.5 -15.4°
Reaches altitude 10° 23:15:38 10° 31° (NNE) 2,354 5.9 -14.8°
Maximum altitude 23:20:31 41° 101° (E) 1,129 3.8 -13.8°
Drops below altitude 10° 23:25:23 10° 171° (S) 2,347 4.9 -12.7°
Sets 23:27:49 0° 178° (S) 3,271 5.6 -12.2°
